Burns Flat, OK

7:39 PM CST on February 10, 2016 (GMT -0600)
Clinton-Sherman

Weather History for KCSM - September, 2013

Change the Weather History Date:

Sunday, September 8, 2013

  Actual Average (WUND) Record (WUND)
Temperature  
Mean Temperature 85 °F -  
Max Temperature 97 °F - - (-1)
Min Temperature 73 °F - - (-1)
Cooling Degree Days 20    
Growing Degree Days 35 (Base 50)    
Moisture  
Dew Point 57 °F    
Average Humidity 42    
Maximum Humidity 64    
Minimum Humidity 19    
Precipitation  
Precipitation 0.00 in - - ()
Sea Level Pressure  
Sea Level Pressure 29.90 in    
Wind  
Wind Speed 12 mph (South)    
Max Wind Speed 20 mph    
Max Gust Speed 24 mph    
Visibility 10 miles    
Events      
Averages and records for this station are not official NWS values.
T = Trace of Precipitation, MM = Missing Value Source: NWS Daily Summary

Daily Weather History Graph

Daily Weather History Graph

Search for Another Location

Airport or City:

Trip Planner

Search our weather history database for the weather conditions in past years. The results will help you decide how hot, cold, wet, or windy it might be!

Date:

Astronomy

Sep. 08, 2013 Rise Set
Actual Time 7:14 AM CDT 7:53 PM CDT
Civil Twilight 6:48 AM CDT 8:19 PM CDT
Nautical Twilight 6:18 AM CDT 8:49 PM CDT
Astronomical Twilight 5:47 AM CDT 9:20 PM CDT
Moon 10:24 AM CDT (9/8) 9:40 PM CDT (9/8)
Length of Visible Light 13h 30m
Length of Day
12h 38m
Waxing Crescent, 11% of the Moon is Illuminated
Sep 8
Waxing Crescent
Sep 12
First Quarter
Sep 19
Full
Sep 26
Last Quarter
Oct 4
New

Hourly Weather History & Observations

Time (CDT) Temp. Heat Index Dew Point Humidity Pressure Visibility Wind Dir Wind Speed Gust Speed Precip Events Conditions
12:53 AM 78.1 °F - 62.1 °F 58% 29.93 in 10.0 mi SSW 10.4 mph - N/A   Clear
1:53 AM 79.0 °F - 62.1 °F 56% 29.93 in 10.0 mi South 10.4 mph - N/A   Clear
2:53 AM 78.1 °F - 62.1 °F 58% 29.92 in 10.0 mi SSW 9.2 mph - N/A   Clear
3:53 AM 75.9 °F - 62.1 °F 62% 29.92 in 10.0 mi SSW 8.1 mph - N/A   Clear
4:53 AM 75.9 °F - 61.0 °F 60% 29.92 in 10.0 mi South 9.2 mph - N/A   Clear
5:53 AM 75.0 °F - 61.0 °F 62% 29.92 in 10.0 mi SSW 9.2 mph - N/A   Clear
6:53 AM 73.9 °F - 61.0 °F 64% 29.93 in 10.0 mi SSW 10.4 mph - N/A   Clear
7:53 AM 73.9 °F - 61.0 °F 64% 29.94 in 10.0 mi SSW 9.2 mph - N/A   Clear
8:53 AM 80.1 °F 81.1 °F 61.0 °F 52% 29.94 in 10.0 mi SSW 10.4 mph - N/A   Clear
9:53 AM 84.9 °F 85.0 °F 61.0 °F 44% 29.94 in 10.0 mi SSW 11.5 mph - N/A   Clear
10:53 AM 90.0 °F 89.1 °F 59.0 °F 35% 29.94 in 10.0 mi SSW 16.1 mph - N/A   Clear
11:53 AM 91.9 °F 91.2 °F 59.0 °F 33% 29.93 in 10.0 mi South 17.3 mph - N/A   Clear
12:53 PM 93.0 °F 92.0 °F 57.9 °F 31% 29.92 in 10.0 mi SSW 10.4 mph 21.9 mph N/A   Clear
1:53 PM 96.1 °F 94.8 °F 57.0 °F 27% 29.90 in 10.0 mi SSE 15.0 mph 20.7 mph N/A   Clear
2:53 PM 97.0 °F 95.3 °F 55.9 °F 25% 29.88 in 10.0 mi South 19.6 mph 23.0 mph N/A   Partly Cloudy
3:53 PM 97.0 °F 94.6 °F 54.0 °F 23% 29.87 in 10.0 mi South 13.8 mph 24.2 mph N/A   Clear
4:53 PM 96.1 °F - 48.0 °F 19% 29.85 in 10.0 mi South 16.1 mph - N/A   Clear
5:53 PM 95.0 °F - 52.0 °F 23% 29.84 in 10.0 mi South 16.1 mph - N/A   Clear
6:53 PM 93.0 °F - 52.0 °F 25% 29.84 in 10.0 mi South 17.3 mph - N/A   Clear
7:53 PM 89.1 °F 86.7 °F 53.1 °F 29% 29.85 in 10.0 mi SSE 10.4 mph - N/A   Clear
8:53 PM 86.0 °F 84.2 °F 54.0 °F 33% 29.86 in 10.0 mi SSE 10.4 mph - N/A   Clear
9:53 PM 82.9 °F 81.8 °F 53.1 °F 36% 29.88 in 10.0 mi SSE 10.4 mph - N/A   Clear
10:53 PM 81.0 °F 80.4 °F 53.1 °F 38% 29.89 in 10.0 mi SSE 13.8 mph - N/A   Clear
11:53 PM 81.0 °F 80.8 °F 55.9 °F 42% 29.89 in 10.0 mi SSE 13.8 mph - N/A   Clear